When you browse on this site, cookies collect data to enhance your experience and personalize the content and advertising you see.
Visit our Privacy Policy to learn more. By continuing to use the site, you agree to this use of cookies and data.
  • In Spain
  • List of Countries
  • For 7 days
  • Water Temperature
  • Weather Map
  • Weather Widgets
  • user-avatar
    Login

    Hourly Weather Lezhe

    Today, 11 December, Wednesday

    Time Temperature Precipitation Wind Pressure Humidity
    00:00 +7°C° 0 mm 5 mps 732 mmHg 83%
    01:00 +7°C° 0 mm 6 mps 733 mmHg 81%
    02:00 +7°C° 0 mm 6 mps 733 mmHg 81%
    03:00 +7°C° 0 mm 6 mps 732 mmHg 82%
    04:00 +5°C° 0 mm 6 mps 732 mmHg 82%
    05:00 +5°C° 0 mm 6 mps 732 mmHg 82%
    06:00 +5°C° 0 mm 6 mps 732 mmHg 81%
    07:00 +5°C° 0 mm 6 mps 733 mmHg 81%
    08:00 +7°C° 0 mm 6 mps 733 mmHg 79%
    09:00 +7°C° 0 mm 6 mps 733 mmHg 77%
    10:00 +7°C° 0 mm 6 mps 733 mmHg 75%
    11:00 +8°C° 0 mm 6 mps 733 mmHg 73%
    12:00 +8°C° 0 mm 6 mps 733 mmHg 71%
    13:00 +8°C° 0 mm 6 mps 732 mmHg 69%
    14:00 +8°C° 0 mm 5 mps 732 mmHg 71%
    15:00 +7°C° 0 mm 5 mps 732 mmHg 73%
    16:00 +6°C° 0 mm 4 mps 732 mmHg 75%
    17:00 +6°C° 0 mm 4 mps 732 mmHg 77%
    18:00 +5°C° 0 mm 4 mps 732 mmHg 79%
    19:00 +5°C° 0 mm 3 mps 732 mmHg 81%
    20:00 +5°C° 0 mm 3 mps 732 mmHg 81%
    21:00 +5°C° 0 mm 3 mps 732 mmHg 81%
    22:00 +5°C° 0 mm 3 mps 732 mmHg 82%
    23:00 +4°C° 0 mm 3 mps 732 mmHg 82%

    Tomorrow, 12 December, Thursday

    Time Temperature Precipitation Wind Pressure Humidity
    00:00 +4°C° 0 mm 3 mps 731 mmHg 82%
    01:00 +4°C° 0 mm 3 mps 731 mmHg 82%
    02:00 +4°C° 0 mm 3 mps 731 mmHg 82%
    03:00 +5°C° 0 mm 2 mps 730 mmHg 82%
    04:00 +5°C° 0 mm 2 mps 730 mmHg 81%
    05:00 +5°C° 0 mm 2 mps 730 mmHg 81%
    06:00 +5°C° 0 mm 2 mps 730 mmHg 80%
    07:00 +5°C° 0 mm 2 mps 730 mmHg 80%
    08:00 +6°C° 0 mm 2 mps 730 mmHg 76%
    09:00 +8°C° 0 mm 2 mps 730 mmHg 73%
    10:00 +10°C° 0 mm 1 mps 729 mmHg 69%
    11:00 +10°C° 0 mm 1 mps 729 mmHg 69%
    12:00 +11°C° 0 mm 1 mps 729 mmHg 68%
    13:00 +11°C° 0 mm 1 mps 729 mmHg 68%
    14:00 +10°C° 0.3 mm 1 mps 729 mmHg 75%
    15:00 +9°C° 0.3 mm 2 mps 729 mmHg 81%
    16:00 +8°C° 0.3 mm 2 mps 728 mmHg 88%
    17:00 +8°C° 0.2 mm 2 mps 728 mmHg 88%
    18:00 +8°C° 0.2 mm 2 mps 728 mmHg 88%
    19:00 +8°C° 0.2 mm 2 mps 728 mmHg 88%
    20:00 +8°C° 0.5 mm 3 mps 728 mmHg 89%
    21:00 +8°C° 0.5 mm 3 mps 728 mmHg 89%
    22:00 +8°C° 0.5 mm 3 mps 728 mmHg 90%
    23:00 +8°C° 1 mm 3 mps 728 mmHg 90%

    Day after tomorrow, 13 December, Friday

    Time Temperature Precipitation Wind Pressure Humidity
    00:00 +8°C° 1 mm 3 mps 727 mmHg 90%
    01:00 +8°C° 1 mm 3 mps 727 mmHg 90%
    02:00 +7°C° 1.3 mm 3 mps 727 mmHg 90%
    03:00 +7°C° 1.3 mm 3 mps 727 mmHg 91%
    04:00 +7°C° 1.3 mm 3 mps 726 mmHg 92%
    05:00 +7°C° 0.8 mm 3 mps 726 mmHg 91%
    06:00 +7°C° 0.8 mm 3 mps 726 mmHg 91%
    07:00 +7°C° 0.8 mm 3 mps 727 mmHg 91%
    08:00 +8°C° 0.7 mm 3 mps 726 mmHg 90%
    09:00 +8°C° 0.7 mm 3 mps 726 mmHg 89%
    10:00 +8°C° 0.7 mm 3 mps 726 mmHg 89%
    11:00 +8°C° 0.5 mm 3 mps 726 mmHg 86%
    12:00 +9°C° 0.5 mm 3 mps 726 mmHg 83%
    13:00 +9°C° 0.5 mm 3 mps 725 mmHg 80%
    14:00 +9°C° 0.6 mm 3 mps 725 mmHg 83%
    15:00 +8°C° 0.6 mm 3 mps 724 mmHg 85%
    16:00 +8°C° 0.6 mm 3 mps 724 mmHg 88%
    17:00 +7°C° 0.2 mm 4 mps 724 mmHg 87%
    18:00 +7°C° 0.2 mm 4 mps 723 mmHg 86%
    19:00 +7°C° 0.2 mm 4 mps 723 mmHg 85%
    20:00 +7°C° 0.1 mm 4 mps 722 mmHg 84%
    21:00 +7°C° 0.1 mm 4 mps 722 mmHg 84%
    22:00 +7°C° 0.1 mm 4 mps 721 mmHg 84%
    23:00 +7°C° 0.6 mm 4 mps 720 mmHg 85%

    14 December, Saturday

    Time Temperature Precipitation Wind Pressure Humidity
    00:00 +6°C° 0.6 mm 4 mps 720 mmHg 86%
    01:00 +6°C° 0.6 mm 4 mps 719 mmHg 88%
    02:00 +6°C° 2.3 mm 4 mps 719 mmHg 88%
    03:00 +6°C° 2.3 mm 4 mps 719 mmHg 89%
    04:00 +7°C° 2.3 mm 3 mps 719 mmHg 90%
    05:00 +6°C° 1.3 mm 4 mps 719 mmHg 89%
    06:00 +6°C° 1.3 mm 4 mps 720 mmHg 88%
    07:00 +6°C° 1.3 mm 4 mps 721 mmHg 87%
    08:00 +7°C° 0 mm 4 mps 722 mmHg 83%
    09:00 +8°C° 0 mm 4 mps 723 mmHg 80%
    10:00 +8°C° 0 mm 4 mps 723 mmHg 77%
    11:00 +10°C° 0 mm 4 mps 724 mmHg 75%
    12:00 +11°C° 0 mm 4 mps 725 mmHg 73%
    13:00 +12°C° 0 mm 4 mps 726 mmHg 71%
    14:00 +11°C° 0 mm 4 mps 727 mmHg 74%
    15:00 +10°C° 0 mm 3 mps 728 mmHg 76%
    16:00 +9°C° 0 mm 3 mps 729 mmHg 79%
    17:00 +9°C° 0 mm 3 mps 730 mmHg 80%
    18:00 +8°C° 0 mm 3 mps 731 mmHg 80%
    19:00 +8°C° 0 mm 3 mps 732 mmHg 81%
    20:00 +8°C° 0 mm 3 mps 733 mmHg 80%
    21:00 +8°C° 0 mm 3 mps 734 mmHg 80%
    22:00 +7°C° 0 mm 2 mps 735 mmHg 80%
    23:00 +7°C° 0 mm 2 mps 735 mmHg 80%

    15 December, Sunday

    Time Temperature Precipitation Wind Pressure Humidity
    00:00 +7°C° 0 mm 2 mps 736 mmHg 80%
    01:00 +7°C° 0 mm 2 mps 736 mmHg 80%
    02:00 +7°C° 0 mm 2 mps 736 mmHg 79%
    03:00 +7°C° 0 mm 2 mps 736 mmHg 79%
    04:00 +7°C° 0 mm 2 mps 737 mmHg 79%
    05:00 +7°C° 0 mm 2 mps 737 mmHg 78%
    06:00 +7°C° 0 mm 2 mps 737 mmHg 77%
    07:00 +7°C° 0 mm 2 mps 738 mmHg 76%
    08:00 +9°C° 0 mm 2 mps 738 mmHg 74%
    09:00 +11°C° 0 mm 1 mps 739 mmHg 71%
    10:00 +13°C° 0 mm 1 mps 739 mmHg 69%
    11:00 +14°C° 0 mm 1 mps 739 mmHg 67%
    12:00 +15°C° 0 mm 1 mps 739 mmHg 66%
    13:00 +15°C° 0 mm 1 mps 739 mmHg 64%
    14:00 +14°C° 0 mm 1 mps 739 mmHg 69%
    15:00 +13°C° 0 mm 1 mps 740 mmHg 74%
    16:00 +12°C° 0 mm 1 mps 740 mmHg 79%
    17:00 +12°C° 0 mm 1 mps 740 mmHg 80%
    18:00 +11°C° 0 mm 1 mps 741 mmHg 81%
    19:00 +11°C° 0 mm 1 mps 741 mmHg 81%
    20:00 +11°C° 0 mm 1 mps 741 mmHg 82%
    21:00 +11°C° 0 mm 1 mps 742 mmHg 83%
    22:00 +10°C° 0 mm 1 mps 742 mmHg 84%
    23:00 +11°C° 0 mm 1 mps 742 mmHg 85%

    16 December, Monday

    Time Temperature Precipitation Wind Pressure Humidity
    00:00 +11°C° 0 mm 1 mps 742 mmHg 85%
    01:00 +11°C° 0 mm 1 mps 743 mmHg 85%
    02:00 +11°C° 0 mm 1 mps 743 mmHg 86%
    03:00 +10°C° 0 mm 1 mps 743 mmHg 86%
    04:00 +10°C° 0 mm 1 mps 743 mmHg 87%
    05:00 +10°C° 0 mm 1 mps 743 mmHg 86%
    06:00 +10°C° 0 mm 1 mps 743 mmHg 86%
    07:00 +10°C° 0 mm 1 mps 743 mmHg 85%
    08:00 +11°C° 0 mm 1 mps 743 mmHg 82%
    09:00 +12°C° 0 mm 1 mps 743 mmHg 79%
    10:00 +13°C° 0 mm 1 mps 744 mmHg 76%
    11:00 +14°C° 0 mm 1 mps 743 mmHg 73%
    12:00 +15°C° 0 mm 1 mps 743 mmHg 71%
    13:00 +16°C° 0 mm 1 mps 743 mmHg 68%
    14:00 +14°C° 0 mm 1 mps 743 mmHg 73%
    15:00 +13°C° 0 mm 1 mps 742 mmHg 78%
    16:00 +12°C° 0 mm 1 mps 742 mmHg 83%
    17:00 +12°C° 0 mm 1 mps 743 mmHg 83%
    18:00 +11°C° 0 mm 1 mps 743 mmHg 83%
    19:00 +11°C° 0 mm 1 mps 743 mmHg 83%
    20:00 +11°C° 0 mm 1 mps 743 mmHg 83%
    21:00 +11°C° 0 mm 1 mps 743 mmHg 83%
    22:00 +10°C° 0 mm 1 mps 743 mmHg 82%
    23:00 +10°C° 0 mm 1 mps 743 mmHg 82%
    Show more